Flag for Uruguay Weather past 2 weeks in Maldonado, Uruguay

Now
50 °F

Clear.


Feels Like: 49 °F
Forecast: 53 / 72 °F
Wind: 3 mph from Northeast

Location: Capitan Corbeta


UV Index: 3 (Moderate)

Visibility: 10 mi


Pressure: 29.98 "Hg

Humidity: 88%

Dew point: 46 °F

Location of MaldonadoLocation

Historic Weather in Maldonado

°F

Maldonado temperature yesterday

Maximum temperature yesterday: 70 °F (at 4:00 PM)
Minimum temperature yesterday: 48 °F (at 12:00 AM)
Average temperature yesterday: 60 °F

Past Weeks' High & Low Weather Summary

 TemperatureHumidityPressure
High81 °F (Apr 4, 2:00 PM)100% (Apr 15, 10:00 PM)30.27 "Hg (Apr 15, 10:00 PM)
Low48 °F (Apr 12, 11:00 PM)41% (Apr 10, 1:00 PM)29.56 "Hg (Apr 8, 9:00 AM)
Average65 °F78%29.97 "Hg
* Reported Apr 1 6:00 AM — Apr 16 6:00 AM, Maldonado, Weather by CustomWeather, © 2014

Note: Actual official high and low records may vary slightly from our data, if they occured in-between our weather recording intervals... More about our weather records

Advertising

Historic Weather Conditions — Data for Previous 24 hours

 ConditionsComfort  
Time TempWeatherWind HumidityBarometerVisibility
6:00 AM
Apr 16
50 °FClear.3 mph88%29.98 "Hg10 mi
5:00 AM50 °FClear.3 mph88%29.95 "Hg10 mi
4:00 AM50 °FClear.5 mph88%29.95 "Hg10 mi
3:00 AM52 °FClear.5 mph88%29.98 "Hg10 mi
2:00 AM54 °FClear.35 mph82%30.01 "Hg10 mi
1:00 AM54 °FClear.3 mph82%29.98 "Hg10 mi
12:00 AM54 °FClear.5 mph82%30.01 "Hg10 mi
11:00 PM
Apr 15
54 °FClear.6 mph82%30.01 "Hg10 mi
10:00 PM55 °FClear.5 mph100%29.98 "Hg10 mi
8:00 PM57 °FClear.5 mph72%30.01 "Hg10 mi
7:00 PM64 °FClear.5 mph60%30.01 "Hg10 mi
6:00 PM64 °FClear.5 mph60%30.01 "Hg10 mi
5:00 PM70 °FSunny.5 mph46%30.01 "Hg10 mi
4:00 PM70 °FSunny.5 mph46%30.04 "Hg10 mi
3:00 PM66 °FSunny.5 mph60%30.04 "Hg10 mi
2:00 PM66 °FSunny.6 mph60%30.07 "Hg10 mi
1:00 PM68 °FSunny.9 mph53%30.09 "Hg10 mi
12:00 PM64 °FSunny.9 mph64%30.09 "Hg10 mi
11:00 AM64 °FSunny.8 mph60%30.12 "Hg10 mi
9:00 AM55 °FSunny.6 mph82%30.09 "Hg10 mi
8:00 AM50 °FSunny.3 mph94%30.09 "Hg10 mi
7:00 AM48 °FSunny.5 mph87%30.09 "Hg10 mi
Weather by CustomWeather, © 2014

See weather overview